Regional Weather Roundup
Issued by NWS

Home | Current Version | Previous Version | Text Only | Print | Product List | Glossary On
Versions: 1 2 3 4 5 6 7 8 9 10 11 12 13 14 15 16 17 18 19 20 21 22 23 24 25 26 27 28 29 30 31 32 33 34 35 36 37 38 39 40 41 42 43 44 45 46 47 48 49 50
000
ASUS43 KTOP 240708
RWRKS

WEATHER ROUNDUP FOR KANSAS
NATIONAL WEATHER SERVICE GOODLAND KS
200 AM CDT FRI MAR 24 2017

NOTE:  "FAIR" INDICATES FEW OR NO CLOUDS BELOW 12,000 FEET WITH NO
SIGNIFICANT WEATHER AND/OR OBSTRUCTIONS TO VISIBILITY.

KSZ001>006-013>018-027>032-041>047-240800-
NORTHWEST KANSAS

CITY           SKY/WX    TMP DP  RH WIND       PRES   REMARKS
GOODLAND       CLOUDY    54  51  90 E23G29    29.59R
HAYS             N/A     66  48  52 S8        29.66S
HILL CITY      CLOUDY    56  56 100 NW6       29.68F
RUSSELL        CLOUDY    67  45  45 S20G26    29.65S
$$

KSZ061>065-074>080-084>089-240800-
SOUTHWEST KANSAS

CITY           SKY/WX    TMP DP  RH WIND       PRES   REMARKS
DODGE CITY     MOCLDY    59  52  77 S20       29.61F
ELKHART          N/A     47  29  50 S20         N/A
GARDEN CITY    CLOUDY    59  51  75 SE22G32   29.55F
GREAT BEND     CLOUDY    68  45  43 S17       29.67S
LIBERAL        PTCLDY    55  39  54 S21G28    29.60R
PRATT          CLOUDY    66  42  42 S17G25    29.69S
$$

KSZ066>073-081>083-090>101-240800-
SOUTHEAST KANSAS

CITY           SKY/WX    TMP DP  RH WIND       PRES   REMARKS
CHANUTE        CLOUDY    69  50  50 S20       29.78S
COFFEYVILLE    CLOUDY    70  50  49 S17       29.78F
HUTCHINSON     CLOUDY    69  47  45 S20G25    29.71F
MEDICINE LODGE   N/A     69  44  40 S17G28    29.68F
NEWTON         CLOUDY    69  48  47 S28G33    29.75F
PARSONS        MOCLDY    70  50  49 S10G21    29.79F
WICHITA INTL   CLOUDY    69  47  45 S20       29.74F
WICHITA JABRA  MOCLDY    69  49  48 S20G35    29.75F
WICHITA MCCONL MOCLDY    70  47  44 S24G30    29.75F
WINFIELD       CLOUDY    71  46  40 S24G33    29.78R
$$

KSZ007>012-019>026-033>040-048>060-102>105-240800-
NORTHEAST KANSAS

CITY           SKY/WX    TMP DP  RH WIND       PRES   REMARKS
CONCORDIA      CLOUDY    71  48  43 S24G35    29.69F
EMPORIA        PTCLDY    67  50  54 SW10      29.80R
LAWRENCE       CLOUDY    70  51  51 S10       29.79R
MANHATTAN      CLOUDY    71  48  43 S10G21    29.74S
MARYSVILLE     LGT RAIN  68  50  52 S16       29.72S
OLATHE IND     CLOUDY    67  49  52 S18       29.78S
OLATHE EXE     CLOUDY    66  50  56 S16       29.79R
SALINA         MOCLDY    72  48  42 S15       29.71S
TOPEKA BILLARD CLOUDY    69  52  54 S6        29.80R
TOPEKA FORBES  CLOUDY    70  51  51 SW9       29.82R
$$



USA.gov is the U.S. government's official web portal to all federal, state and local government web resources and services.